sat.trackr.live / text

‹ back to catalog

STARLINK-36303

NORAD 68969 · 2026-099U

PAYLOAD ACTIVE UNKNOWN

§ Identity

Operator
Country
US
Launch date
2026-05-01
Launch site
AFETR
Launch vehicle
Mass (kg)
RCS (m²)

Purposes: comms

External: N2YO · Heavens-Above · Gunter

§ Orbital elements

Epoch: 2026-09-19T21:29:10.349088Z

Period
93.85 min
Inclination
53.1592°
Eccentricity
0.0000917
Mean motion
15.34405078 rev/d
Perigee alt
462.1 km
Apogee alt
463.3 km
Semi-major
6,840.8 km
B*
5.0810e-4
RAAN
78.4527°
Arg perigee
73.8863°
Mean anomaly
286.2241°
Rev number
2,181

§ Raw data

STARLINK-363031 68969U 26099U   26262.89525867  .00016832  00000+0  50810-3 0  99982 68969  53.1592  78.4527 0000917  73.8863 286.2241 15.34405078 21814

JSON: /api/v1/satellites/68969 · /tle

For live sub-satellite position, see the globe view (requires WebGL).

§ Visibility from observer

Set your observer location to see the next 7 days of passes ≥ 10°. The values pass through the URL so the page stays shareable.

No JS? Fill the form by hand. The geolocation button needs JavaScript.